CAPE
nan nan nan nan nan nan nan nan nan nan nan nan nan nan nan nan nan nan nan nan nan nan nan nan nan nan nan nan nan nan nan nan nan nan nan nan nan nan nan nan nan nan nan nan nan 0 3 4 4 5 6 3 1 1 nan nan nan nan nan nan nan nan nan 0 0 1 6 11 17 17 26 26 3 3 nan 1 4 4 10 19 19 28 44 84 84 192
nan nan nan nan nan nan nan nan nan nan nan nan nan nan nan nan nan nan nan nan nan nan nan nan nan nan nan nan nan nan nan nan nan nan nan nan nan nan nan nan nan nan nan nan nan 2 3 4 4 5 3 2 1 1 nan nan nan nan nan nan nan nan nan 0 0 2 3 9 14 14 15 10 nan nan nan nan 7 7 20 29 29 36 62 141 141 302
nan nan nan nan nan nan nan nan nan nan nan nan nan nan nan nan nan nan nan nan nan nan nan nan nan nan nan nan nan nan nan nan nan nan nan nan nan nan nan nan nan nan nan nan nan nan 1 4 4 5 4 4 2 2 0 nan nan nan nan nan nan nan nan nan nan 0 2 6 8 8 8 5 1 1 nan nan 5 5 46 53 53 47 90 214 214 426
nan nan nan nan nan nan nan nan nan nan nan nan nan nan nan nan nan nan nan nan nan nan nan nan nan nan nan nan nan nan nan nan nan nan nan nan nan nan 1 3 3 3 0 nan nan nan nan 2 2 6 9 8 7 7 3 0 0 nan nan nan nan nan nan nan nan nan 1 3 4 4 3 1 1 1 0 nan nan nan 20 45 45 48 113 244 244 460
nan nan nan nan nan nan nan nan nan nan nan nan nan nan nan nan nan nan nan nan nan nan nan nan nan nan nan nan nan nan nan nan nan nan nan nan nan nan 1 3 3 5 4 3 3 1 1 6 6 11 14 15 10 10 7 4 4 0 nan nan nan nan nan nan nan nan 0 1 2 2 3 2 2 2 3 3 0 0 6 34 34 61 92 229 229 464
nan nan nan nan nan nan nan nan nan nan nan nan nan nan nan nan nan nan nan nan nan nan nan nan nan nan nan nan nan nan nan nan nan nan nan nan nan nan nan 1 1 4 9 10 10 12 13 17 17 20 21 19 16 16 12 9 9 3 nan nan nan nan nan nan nan nan nan 0 2 2 3 3 3 3 2 3 3 3 2 27 27 70 107 193 193 403
nan nan nan nan nan nan nan nan nan nan nan nan nan nan nan nan nan nan nan nan nan nan nan nan nan nan nan nan nan nan nan nan nan nan nan nan nan nan nan 0 0 4 12 20 20 29 31 33 33 33 30 27 23 23 18 13 13 6 nan nan nan nan nan nan nan nan nan 0 1 1 2 3 2 2 1 0 3 3 5 12 12 66 101 146 146 323
nan nan nan nan nan nan nan nan nan nan nan nan nan nan nan nan nan nan nan nan nan nan nan nan nan nan nan nan nan nan nan nan nan nan nan nan nan nan nan nan nan nan nan 1 1 7 18 31 31 43 55 53 45 45 31 16 16 6 1 nan nan nan nan nan nan nan nan nan 0 0 2 3 2 2 1 nan nan nan 0 7 7 15 80 115 115 148
nan nan nan nan nan nan nan nan nan nan nan nan nan nan nan nan nan nan nan nan nan nan nan nan nan nan nan nan nan nan nan nan nan nan nan nan nan nan nan nan nan nan nan nan nan 0 7 16 16 26 39 48 49 49 33 13 13 5 1 nan nan nan nan nan nan nan nan nan 0 0 3 4 3 3 2 0 nan nan nan 0 0 8 31 96 96 164
nan nan nan nan nan nan nan nan nan nan nan nan nan nan nan nan nan nan nan nan nan nan nan nan nan nan nan nan nan nan nan nan nan nan nan nan nan nan nan nan nan nan nan nan nan nan 1 5 5 13 19 26 31 31 23 7 7 2 nan nan nan nan nan nan nan nan nan nan 1 1 3 5 4 4 3 1 nan nan nan nan nan 0 7 33 33 112
nan nan nan nan nan nan nan nan nan nan nan nan nan nan nan nan nan nan nan nan nan nan nan nan nan nan nan nan nan nan nan nan nan nan nan nan nan nan nan nan nan nan nan nan nan nan nan nan nan 2 6 11 11 11 7 1 1 nan nan nan nan nan nan nan nan nan nan nan 1 1 4 6 6 6 5 3 0 0 nan nan nan nan nan 4 4 36
nan nan nan nan nan nan nan nan nan nan nan nan nan nan nan nan nan nan nan nan nan nan nan nan nan nan nan nan nan nan nan nan nan nan nan nan nan nan nan nan nan nan nan nan nan nan nan nan nan nan nan nan nan nan nan nan nan nan nan 1 1 3 2 0 0 nan nan nan 1 1 3 5 7 7 8 5 1 1 nan nan nan nan nan nan nan 6
nan nan nan nan nan nan nan nan nan nan nan nan nan nan nan nan nan nan nan nan nan nan nan nan nan nan nan nan nan nan nan nan nan nan nan nan nan nan nan nan nan nan nan nan nan nan nan nan nan nan nan nan nan nan nan nan nan nan 1 8 8 11 9 5 5 2 0 nan 0 0 1 3 6 6 8 8 3 3 0 nan nan nan nan nan nan 1
nan nan nan nan nan nan nan nan nan nan nan nan nan nan nan nan nan nan nan nan nan nan nan nan nan nan nan nan nan nan nan nan nan nan nan nan nan nan nan nan nan nan nan nan nan nan nan nan nan nan nan nan nan nan nan nan nan 1 6 14 14 21 20 15 15 9 4 1 nan nan 0 3 6 6 8 8 5 5 1 nan nan nan nan nan nan nan
nan nan nan nan nan nan nan nan nan nan nan nan nan nan nan nan nan nan nan nan nan nan nan nan nan nan nan nan nan nan nan nan nan nan nan nan nan nan nan nan nan nan nan nan nan nan nan nan nan nan nan nan nan nan nan nan nan nan 0 8 8 15 17 20 20 15 11 3 nan nan nan 1 3 3 6 8 5 5 2 nan nan nan nan nan nan nan
nan nan nan nan nan nan nan nan nan nan nan nan nan nan nan nan nan nan nan nan nan nan nan nan nan nan nan nan nan nan nan nan nan nan nan nan nan nan nan nan nan nan nan nan nan nan nan nan nan nan nan nan nan nan nan nan nan nan nan nan nan nan nan nan nan 4 6 3 0 0 nan 0 2 2 4 5 4 4 2 1 1 nan nan nan nan nan
nan nan nan nan nan nan nan nan nan nan nan nan nan nan nan nan nan nan nan nan nan nan nan nan nan nan nan nan nan nan nan nan nan nan nan nan nan nan nan nan nan nan nan nan nan nan nan nan nan nan nan nan nan nan nan nan nan nan nan nan nan nan nan nan nan nan nan 0 nan nan nan nan 0 0 2 2 3 3 2 1 1 0 0 nan nan nan
nan nan nan nan nan nan nan nan nan nan nan nan nan nan nan nan nan nan nan nan nan nan nan nan nan nan nan nan nan nan nan nan nan nan nan nan nan nan nan nan nan nan nan nan nan nan nan nan nan nan nan nan nan nan nan nan nan nan nan nan nan nan nan nan nan nan nan nan nan nan 0 0 0 0 1 2 1 1 1 1 1 0 0 nan nan nan
4 2 1 1 1 0 nan nan nan nan nan nan nan nan nan nan nan nan nan nan nan nan nan nan nan nan nan nan nan nan nan nan nan nan nan nan nan nan nan nan nan nan nan nan nan nan nan nan nan nan nan nan nan nan nan nan nan nan nan nan nan nan nan nan nan nan nan nan 2 2 3 3 1 1 0 1 1 1 1 1 1 1 1 1 1 nan
10 13 15 11 11 7 2 0 nan nan nan nan nan nan nan nan nan nan nan nan nan nan nan nan nan nan nan nan nan nan nan nan nan nan nan nan nan nan nan nan nan nan nan nan nan nan nan nan nan nan nan nan nan nan nan nan nan nan nan nan nan nan nan nan nan nan nan 0 4 4 7 8 8 8 2 0 1 1 1 2 2 2 1 1 1 0
2 1 4 3 3 5 6 3 nan nan 0 10 2 2 nan nan nan nan nan nan nan nan nan nan nan nan nan nan nan nan nan nan 8 8 10 3 0 0 nan nan nan nan nan nan nan nan nan nan nan nan nan nan nan nan nan nan nan nan nan nan nan nan 0 0 0 nan nan 1 7 7 10 13 13 13 9 2 1 1 2 2 2 2 1 0 0 0
nan nan nan nan nan nan nan nan nan nan 0 nan 2 2 12 10 7 7 9 15 15 16 20 21 21 19 21 25 24 24 2 0 1 1 1 nan nan nan nan nan nan nan nan nan nan nan nan nan nan nan nan nan nan nan nan nan nan nan nan nan nan 0 2 4 4 3 3 5 9 9 12 13 17 17 16 10 1 1 1 2 2 2 1 0 0 0
nan nan nan nan nan nan nan nan nan nan nan nan nan nan nan nan nan nan 0 8 8 10 13 18 18 16 4 nan nan nan nan nan nan nan nan nan nan nan nan nan nan nan nan nan nan nan nan nan nan nan nan 2 3 3 5 3 3 2 1 1 1 2 5 7 7 7 8 10 14 14 14 15 20 20 24 18 9 9 2 2 2 2 1 0 0 0
nan nan nan nan nan nan nan nan nan nan nan nan nan nan nan nan nan nan nan 0 0 nan nan 3 3 nan nan nan nan nan nan nan nan nan nan nan nan nan nan nan nan nan nan nan nan nan nan nan nan nan nan 5 15 15 17 15 15 12 9 7 7 6 9 12 12 13 14 15 18 18 22 20 21 21 29 31 23 23 9 3 3 2 2 0 0 nan
nan nan nan nan nan nan nan nan nan nan nan nan nan nan nan nan 6 6 8 6 6 3 1 0 0 nan nan 0 nan nan nan nan nan nan nan nan nan nan nan nan nan nan nan nan nan nan nan nan nan nan nan nan 23 23 30 31 31 25 18 13 13 9 10 12 12 15 17 20 25 25 30 27 24 24 27 30 31 31 27 10 10 6 3 1 1 nan
7 4 3 6 6 26 38 41 47 47 39 16 19 19 17 22 27 27 26 21 21 10 3 nan nan nan nan nan nan nan nan nan nan nan nan nan nan nan nan nan nan nan nan nan nan nan nan nan nan nan nan nan 19 19 28 30 30 25 18 10 10 8 8 11 11 14 22 26 32 32 42 40 33 33 22 22 29 29 26 21 21 11 5 1 1 nan
50 54 62 74 74 76 87 96 107 107 114 80 15 15 2 10 22 22 31 30 30 16 6 3 3 0 nan nan nan nan nan nan nan nan nan nan nan nan nan nan nan nan nan nan nan nan nan nan nan nan nan nan nan nan 17 19 19 19 12 6 6 4 7 16 16 25 40 47 53 53 58 59 47 47 27 22 25 25 31 31 31 22 8 1 1 nan
49 54 61 66 66 74 87 94 109 109 104 92 79 79 25 3 9 9 23 35 35 23 8 4 4 1 0 nan nan nan nan nan nan nan nan nan nan nan nan nan nan nan nan nan nan nan nan nan nan nan nan nan nan nan 2 14 14 15 13 12 12 10 21 40 40 55 65 76 79 79 86 84 74 74 55 39 34 34 42 42 42 29 10 7 7 5
37 37 44 57 57 73 92 108 112 112 114 104 100 100 40 nan 5 5 18 29 29 18 8 7 7 5 3 0 nan nan nan nan nan nan nan nan nan nan nan nan nan nan nan nan nan nan nan nan nan nan nan nan nan nan nan 10 10 15 24 33 33 36 41 48 48 54 56 63 77 77 93 101 98 98 86 68 61 61 62 57 57 42 18 9 9 5
7 18 24 40 40 62 83 72 97 97 117 103 90 90 51 12 29 29 42 36 36 16 12 18 18 14 9 5 4 4 3 1 nan nan nan nan nan nan nan nan nan nan nan 1 1 4 2 nan nan nan nan nan nan nan nan nan nan 0 20 58 58 46 33 27 27 24 27 39 55 55 71 93 104 104 104 97 92 92 80 68 68 38 19 10 10 3
nan nan 1 12 12 18 5 nan 21 21 87 90 74 74 44 17 49 49 72 49 49 39 33 30 30 22 13 6 0 0 nan nan nan nan nan nan nan nan nan nan nan nan nan 7 7 7 5 nan nan nan nan nan nan nan nan nan nan nan nan 1 1 2 12 10 10 13 15 20 28 28 50 73 90 90 112 117 98 98 83 73 73 57 29 19 19 10
nan nan nan nan nan nan nan nan nan nan nan nan nan nan nan nan nan nan nan nan nan nan 3 5 5 3 nan nan nan nan nan nan nan nan nan nan nan nan nan nan nan nan nan nan nan nan 1 3 3 nan nan nan nan nan nan nan nan nan 0 nan nan nan 0 9 9 4 nan 7 21 21 47 72 104 104 116 116 103 103 96 87 87 74 48 31 31 19
6 4 nan nan nan nan nan nan nan nan nan nan nan nan nan nan nan nan nan nan nan nan nan nan nan nan nan nan nan nan nan nan nan nan nan nan nan nan nan nan nan nan nan nan nan nan nan nan nan nan nan nan nan nan 9 13 13 4 nan nan nan nan nan nan nan nan nan 0 6 6 46 77 98 98 106 95 90 90 72 64 64 61 53 34 34 27
17 9 5 2 2 nan nan nan nan nan nan nan nan nan nan nan nan nan nan nan nan nan nan nan nan nan nan nan nan nan nan nan nan nan nan nan nan nan nan nan nan nan 0 nan nan nan nan nan nan nan nan nan nan nan nan nan nan nan nan nan nan nan nan nan nan nan nan 0 1 1 19 35 82 82 72 78 74 74 60 51 51 54 53 46 46 29
22 19 22 21 21 24 31 24 9 9 2 nan nan nan nan nan nan nan nan nan nan nan nan nan nan nan nan nan nan nan nan nan 0 0 14 0 nan nan nan nan nan nan nan nan nan 0 5 8 8 14 12 9 nan nan nan nan nan nan nan nan nan nan nan nan nan nan nan 5 25 25 28 39 44 44 51 58 65 65 56 46 46 45 54 62 62 48
11 12 15 15 15 18 16 19 6 6 nan nan nan nan nan 4 2 2 nan nan nan 10 35 34 34 27 13 13 16 16 13 9 37 37 51 14 1 1 2 2 2 0 nan nan nan 12 24 34 34 42 27 3 nan nan nan nan nan nan nan nan nan nan nan nan nan nan nan 1 3 3 14 25 41 41 44 64 62 62 51 41 41 38 53 69 69 61
3 2 5 1 1 0 1 nan 7 7 16 17 3 3 0 nan nan nan nan nan nan 0 10 29 29 32 55 50 36 36 35 35 49 49 79 53 11 11 1 6 6 3 nan 8 8 25 42 51 51 42 17 0 nan nan nan nan nan nan nan nan nan nan nan nan nan nan nan nan nan nan 0 1 5 5 14 42 27 27 35 41 41 39 51 63 63 74
1 3 6 3 3 4 7 19 40 40 12 nan nan nan nan nan nan nan nan nan nan nan nan nan nan nan 10 31 20 20 13 8 12 12 21 28 20 20 19 14 14 13 16 15 15 30 42 43 43 36 14 nan nan nan nan nan nan nan nan nan nan nan nan nan nan nan nan nan 3 3 6 6 2 2 0 0 nan nan nan 1 1 10 40 53 53 69
3 6 8 11 11 14 16 13 6 6 nan nan nan nan nan nan nan nan nan nan nan nan nan nan nan nan nan nan nan nan 1 nan nan nan nan nan 0 0 8 11 11 10 7 8 8 20 31 32 32 24 13 nan nan nan nan nan nan nan nan nan nan nan nan nan nan nan nan nan 5 5 8 4 1 1 nan nan nan nan nan nan nan 1 8 27 27 79
4 4 6 9 9 3 1 nan nan nan nan nan nan nan nan nan nan nan nan nan nan nan nan nan nan nan nan nan nan nan nan nan nan nan nan nan nan nan nan nan nan 0 2 4 4 12 22 21 21 17 16 3 0 0 nan nan nan nan 0 nan nan nan nan nan nan nan nan nan nan nan 2 1 1 1 0 nan nan nan nan nan nan nan 3 17 17 54
2 1 0 nan nan nan nan nan nan nan nan nan nan nan nan nan nan nan nan nan nan nan nan nan nan nan nan nan nan nan nan nan nan nan nan nan nan nan nan nan nan nan nan 1 1 8 16 18 18 16 9 4 5 5 2 nan nan 1 4 0 0 nan nan nan nan nan nan nan nan nan 0 6 10 10 7 6 2 2 2 2 2 0 2 11 11 33
7 4 nan nan nan nan nan nan nan nan nan 0 0 0 0 0 nan nan 0 3 3 nan nan nan nan nan nan nan nan nan nan nan nan nan nan nan nan nan nan nan nan nan nan nan nan 3 8 13 13 13 7 5 5 5 1 nan nan 1 1 nan nan nan 2 0 0 nan 0 nan nan nan 8 14 22 22 28 22 7 7 7 0 0 2 6 9 9 21
5 2 nan 0 0 1 6 14 28 28 31 32 24 24 17 18 29 29 28 14 14 3 1 3 3 5 5 0 nan nan nan nan nan nan nan nan nan nan nan nan nan nan nan nan nan nan 1 12 12 10 8 5 8 8 8 4 4 0 nan nan nan 3 6 nan nan nan nan nan 2 2 10 17 28 28 37 41 20 20 6 5 5 11 9 5 5 15
8 7 8 8 8 13 22 9 2 2 0 nan 0 0 1 1 3 3 7 7 7 2 1 5 5 17 17 13 3 3 nan nan nan nan 1 1 nan nan nan nan nan nan nan nan nan nan nan 6 6 8 6 11 14 14 16 14 14 8 6 9 9 10 8 nan nan nan nan nan nan nan 2 11 25 25 37 42 22 22 8 1 1 0 1 4 4 11
13 18 13 10 10 1 nan nan nan nan nan nan nan nan 0 1 10 10 12 19 19 29 41 25 25 4 nan nan nan nan 1 2 4 4 7 16 19 19 1 nan nan nan nan nan nan nan nan 2 2 1 2 17 26 26 32 25 25 21 20 20 20 10 nan nan nan nan 1 0 0 0 1 5 16 16 29 26 13 13 4 0 0 nan nan 2 2 12
20 4 nan nan nan nan nan nan nan nan 1 5 5 5 5 7 14 14 24 26 26 12 2 0 0 0 0 3 2 2 2 3 7 7 10 9 11 11 7 2 2 0 0 0 0 nan 1 3 3 3 7 17 26 26 28 25 25 19 13 15 15 5 3 0 0 nan 0 1 0 0 nan 4 14 14 23 18 6 6 0 nan nan nan nan 2 2 11
nan nan nan nan nan 0 2 2 5 5 8 9 10 10 11 9 11 11 11 8 8 3 3 5 5 5 6 5 2 2 1 0 1 1 2 6 12 12 12 10 10 6 3 4 4 3 2 1 1 2 5 8 11 11 1 3 3 9 7 5 5 5 3 4 4 2 1 3 5 5 3 3 11 11 17 10 3 3 nan nan nan nan nan 1 1 8
nan 2 3 3 3 2 2 3 5 5 6 8 7 7 7 4 3 3 4 3 3 5 8 3 3 3 1 2 2 2 1 1 0 0 0 0 5 5 16 16 16 18 10 10 10 7 3 0 0 nan nan nan 2 2 2 1 1 3 3 3 3 4 4 4 4 1 3 3 nan nan 0 3 9 9 10 11 6 6 nan nan nan nan nan 0 0 6
1 2 1 2 2 1 2 3 3 3 4 4 3 3 2 9 28 28 5 0 0 2 3 3 3 3 2 2 3 3 7 6 1 1 0 nan nan nan 0 5 5 6 5 4 4 2 0 nan nan nan nan nan 0 0 1 1 1 1 2 3 3 2 3 4 4 3 3 0 nan nan nan nan 3 3 10 17 14 14 0 nan nan nan nan nan nan 2
1 0 0 0 0 0 2 3 4 4 3 4 4 4 2 1 2 2 2 2 2 2 3 5 5 6 5 3 3 3 6 3 2 2 0 nan nan nan nan nan nan 2 5 2 2 2 nan nan nan nan nan nan nan nan 1 1 1 1 1 2 2 1 1 2 2 3 2 3 nan nan nan nan 0 0 8 14 4 4 nan nan nan nan nan nan nan 1
4 0 1 0 0 1 1 2 3 3 3 4 5 5 2 2 2 2 3 4 4 4 6 6 6 7 6 6 6 6 7 2 2 2 1 nan nan nan nan nan nan nan 5 6 6 8 13 5 5 0 7 16 1 1 nan 1 1 1 0 0 0 nan nan 0 0 2 6 10 4 4 2 8 11 11 9 5 2 2 nan nan nan nan nan nan nan 0
CIN
nan nan nan nan nan nan nan nan nan nan nan nan nan nan nan nan nan nan nan nan nan nan nan nan nan nan nan nan nan nan nan nan nan nan nan nan nan nan nan nan nan nan nan nan nan -40 -32 -27 -27 -22 -18 -19 -18 -18 nan nan nan nan nan nan nan nan nan -0 -0 -0 -0 -0 -0 -0 -0 -0 -18 -18 nan -70 -71 -71 -59 -41 -41 -26 -15 -9 -9 -4
nan nan nan nan nan nan nan nan nan nan nan nan nan nan nan nan nan nan nan nan nan nan nan nan nan nan nan nan nan nan nan nan nan nan nan nan nan nan nan nan nan nan nan nan nan -37 -31 -26 -26 -22 -24 -24 -26 -26 nan nan nan nan nan nan nan nan nan -0 -0 -0 -0 -0 -0 -0 -0 -0 nan nan nan nan -48 -48 -29 -27 -27 -21 -12 -5 -5 -1
nan nan nan nan nan nan nan nan nan nan nan nan nan nan nan nan nan nan nan nan nan nan nan nan nan nan nan nan nan nan nan nan nan nan nan nan nan nan nan nan nan nan nan nan nan nan -41 -32 -32 -26 -25 -28 -33 -33 -34 nan nan nan nan nan nan nan nan nan nan -0 -0 -0 -0 -0 -0 -0 -3 -3 nan nan -16 -16 -16 -16 -16 -17 -10 -1 -1 -0
nan nan nan nan nan nan nan nan nan nan nan nan nan nan nan nan nan nan nan nan nan nan nan nan nan nan nan nan nan nan nan nan nan nan nan nan nan nan -34 -36 -36 -40 -47 nan nan nan nan -46 -46 -36 -31 -32 -36 -36 -38 -38 -38 nan nan nan nan nan nan nan nan nan -0 -0 -0 -0 -0 -1 -2 -2 -2 nan nan nan -12 -14 -14 -14 -5 -1 -1 -0
nan nan nan nan nan nan nan nan nan nan nan nan nan nan nan nan nan nan nan nan nan nan nan nan nan nan nan nan nan nan nan nan nan nan nan nan nan nan -38 -40 -40 -43 -47 -51 -51 -55 -55 -50 -50 -43 -36 -32 -36 -36 -39 -40 -40 -40 nan nan nan nan nan nan nan nan -0 -0 -0 -0 -0 -0 -0 -0 -0 -0 -0 -0 -6 -9 -9 -9 -4 -1 -1 -0
nan nan nan nan nan nan nan nan nan nan nan nan nan nan nan nan nan nan nan nan nan nan nan nan nan nan nan nan nan nan nan nan nan nan nan nan nan nan nan -46 -46 -47 -46 -47 -47 -46 -42 -37 -37 -35 -31 -28 -28 -28 -33 -37 -37 -39 nan nan nan nan nan nan nan nan nan -0 -0 -0 -0 -0 -0 -0 -0 -0 -0 -0 -0 -0 -0 -1 -3 -1 -1 -0
nan nan nan nan nan nan nan nan nan nan nan nan nan nan nan nan nan nan nan nan nan nan nan nan nan nan nan nan nan nan nan nan nan nan nan nan nan nan nan -44 -44 -37 -33 -27 -27 -21 -24 -27 -27 -27 -25 -21 -19 -19 -22 -29 -29 -36 nan nan nan nan nan nan nan nan nan -0 -0 -0 -0 -0 -0 -0 -1 -1 -0 -0 -0 -0 -0 -0 -0 -0 -0 -0
nan nan nan nan nan nan nan nan nan nan nan nan nan nan nan nan nan nan nan nan nan nan nan nan nan nan nan nan nan nan nan nan nan nan nan nan nan nan nan nan nan nan nan -33 -33 -29 -25 -21 -21 -18 -16 -16 -15 -15 -16 -22 -22 -30 -38 nan nan nan nan nan nan nan nan nan -1 -1 -0 -0 -1 -1 -1 nan nan nan -1 -0 -0 -0 -0 -0 -0 -0
nan nan nan nan nan nan nan nan nan nan nan nan nan nan nan nan nan nan nan nan nan nan nan nan nan nan nan nan nan nan nan nan nan nan nan nan nan nan nan nan nan nan nan nan nan -34 -26 -22 -22 -17 -14 -15 -14 -14 -18 -25 -25 -31 -36 nan nan nan nan nan nan nan nan nan -1 -1 -0 -0 -0 -0 -1 -3 nan nan nan -1 -1 -0 -0 -0 -0 -0
nan nan nan nan nan nan nan nan nan nan nan nan nan nan nan nan nan nan nan nan nan nan nan nan nan nan nan nan nan nan nan nan nan nan nan nan nan nan nan nan nan nan nan nan nan nan -32 -28 -28 -19 -14 -12 -13 -13 -18 -29 -29 -34 nan nan nan nan nan nan nan nan nan nan -0 -0 -0 -0 -0 -0 -1 -2 nan nan nan nan nan -1 -0 -0 -0 -0
nan nan nan nan nan nan nan nan nan nan nan nan nan nan nan nan nan nan nan nan nan nan nan nan nan nan nan nan nan nan nan nan nan nan nan nan nan nan nan nan nan nan nan nan nan nan nan nan nan -31 -23 -17 -19 -19 -26 -38 -38 nan nan nan nan nan nan nan nan nan nan nan -0 -0 -0 -0 -0 -0 -0 -1 -3 -3 nan nan nan nan nan -0 -0 -0
nan nan nan nan nan nan nan nan nan nan nan nan nan nan nan nan nan nan nan nan nan nan nan nan nan nan nan nan nan nan nan nan nan nan nan nan nan nan nan nan nan nan nan nan nan nan nan nan nan nan nan nan nan nan nan nan nan nan nan -19 -19 -18 -18 -18 -18 nan nan nan -1 -1 -0 -0 -0 -0 -0 -0 -2 -2 nan nan nan nan nan nan nan -0
nan nan nan nan nan nan nan nan nan nan nan nan nan nan nan nan nan nan nan nan nan nan nan nan nan nan nan nan nan nan nan nan nan nan nan nan nan nan nan nan nan nan nan nan nan nan nan nan nan nan nan nan nan nan nan nan nan nan -17 -12 -12 -11 -11 -11 -11 -10 -9 nan -2 -2 -0 -0 -0 -0 -0 -0 -1 -1 -3 nan nan nan nan nan nan -0
nan nan nan nan nan nan nan nan nan nan nan nan nan nan nan nan nan nan nan nan nan nan nan nan nan nan nan nan nan nan nan nan nan nan nan nan nan nan nan nan nan nan nan nan nan nan nan nan nan nan nan nan nan nan nan nan nan -13 -10 -7 -7 -5 -6 -7 -7 -7 -8 -7 nan nan -1 -0 -0 -0 -0 -0 -1 -1 -3 nan nan nan nan nan nan nan
nan nan nan nan nan nan nan nan nan nan nan nan nan nan nan nan nan nan nan nan nan nan nan nan nan nan nan nan nan nan nan nan nan nan nan nan nan nan nan nan nan nan nan nan nan nan nan nan nan nan nan nan nan nan nan nan nan nan -11 -6 -6 -5 -5 -5 -5 -5 -6 -7 nan nan nan -1 -0 -0 -0 -0 -1 -1 -2 nan nan nan nan nan nan nan
nan nan nan nan nan nan nan nan nan nan nan nan nan nan nan nan nan nan nan nan nan nan nan nan nan nan nan nan nan nan nan nan nan nan nan nan nan nan nan nan nan nan nan nan nan nan nan nan nan nan nan nan nan nan nan nan nan nan nan nan nan nan nan nan nan -8 -7 -8 -8 -8 nan -3 -1 -1 -0 -0 -1 -1 -2 -4 -4 nan nan nan nan nan
nan nan nan nan nan nan nan nan nan nan nan nan nan nan nan nan nan nan nan nan nan nan nan nan nan nan nan nan nan nan nan nan nan nan nan nan nan nan nan nan nan nan nan nan nan nan nan nan nan nan nan nan nan nan nan nan nan nan nan nan nan nan nan nan nan nan nan -8 nan nan nan nan -2 -2 -1 -1 -1 -1 -2 -3 -3 -5 -7 nan nan nan
nan nan nan nan nan nan nan nan nan nan nan nan nan nan nan nan nan nan nan nan nan nan nan nan nan nan nan nan nan nan nan nan nan nan nan nan nan nan nan nan nan nan nan nan nan nan nan nan nan nan nan nan nan nan nan nan nan nan nan nan nan nan nan nan nan nan nan nan nan nan -7 -7 -4 -4 -2 -1 -1 -1 -2 -2 -2 -3 -4 nan nan nan
-3 -11 -14 -14 -14 -20 nan nan nan nan nan nan nan nan nan nan nan nan nan nan nan nan nan nan nan nan nan nan nan nan nan nan nan nan nan nan nan nan nan nan nan nan nan nan nan nan nan nan nan nan nan nan nan nan nan nan nan nan nan nan nan nan nan nan nan nan nan nan -5 -5 -6 -6 -4 -4 -3 -2 -1 -1 -1 -2 -2 -2 -2 -4 -4 nan
-1 -1 -2 -2 -2 -4 -11 -21 nan nan nan nan nan nan nan nan nan nan nan nan nan nan nan nan nan nan nan nan nan nan nan nan nan nan nan nan nan nan nan nan nan nan nan nan nan nan nan nan nan nan nan nan nan nan nan nan nan nan nan nan nan nan nan nan nan nan nan -5 -5 -5 -5 -4 -3 -3 -3 -3 -2 -2 -1 -1 -1 -1 -2 -3 -3 -4
-3 -6 -4 -5 -5 -2 -2 -11 nan nan -27 -5 -19 -19 nan nan nan nan nan nan nan nan nan nan nan nan nan nan nan nan nan nan -4 -4 -3 -8 -9 -9 nan nan nan nan nan nan nan nan nan nan nan nan nan nan nan nan nan nan nan nan nan nan nan nan -2 -3 -3 nan nan -6 -5 -5 -4 -3 -3 -3 -3 -3 -2 -2 -1 -1 -1 -1 -2 -2 -2 -3
nan nan nan nan nan nan nan nan nan nan -9 nan -11 -11 -5 -7 -8 -8 -9 -9 -9 -7 -5 -4 -4 -7 -6 -2 -6 -6 -36 -31 -15 -15 -10 nan nan nan nan nan nan nan nan nan nan nan nan nan nan nan nan nan nan nan nan nan nan nan nan nan nan -0 -1 -3 -3 -4 -5 -5 -5 -5 -2 -2 -2 -2 -2 -3 -2 -2 -2 -1 -1 -1 -1 -2 -2 -2
nan nan nan nan nan nan nan nan nan nan nan nan nan nan nan nan nan nan -16 -10 -10 -9 -8 -9 -9 -14 -25 nan nan nan nan nan nan nan nan nan nan nan nan nan nan nan nan nan nan nan nan nan nan nan nan -0 -0 -0 -0 -0 -0 -0 -0 -0 -0 -0 -0 -2 -2 -3 -4 -4 -4 -4 -3 -2 -2 -2 -2 -3 -3 -3 -2 -2 -2 -1 -2 -3 -3 -3
nan nan nan nan nan nan nan nan nan nan nan nan nan nan nan nan nan nan nan -22 -22 nan nan -16 -16 nan nan nan nan nan nan nan nan nan nan nan nan nan nan nan nan nan nan nan nan nan nan nan nan nan nan -3 -0 -0 -0 -0 -0 -0 -0 -0 -0 -0 -0 -1 -1 -2 -3 -3 -4 -4 -4 -3 -3 -3 -3 -3 -3 -3 -3 -2 -2 -2 -2 -4 -4 nan
nan nan nan nan nan nan nan nan nan nan nan nan nan nan nan nan -16 -16 -16 -18 -18 -18 -21 -15 -15 nan nan -14 nan nan nan nan nan nan nan nan nan nan nan nan nan nan nan nan nan nan nan nan nan nan nan nan -0 -0 -0 -0 -0 -0 -0 -0 -0 -0 -0 -0 -0 -0 -2 -3 -3 -3 -4 -5 -5 -5 -5 -4 -3 -3 -3 -3 -3 -3 -3 -5 -5 nan
-10 -13 -18 -11 -11 -0 -0 -0 -0 -0 -1 -3 -4 -4 -11 -10 -7 -7 -5 -5 -5 -10 -14 nan nan nan nan nan nan nan nan nan nan nan nan nan nan nan nan nan nan nan nan nan nan nan nan nan nan nan nan nan -2 -2 -0 -0 -0 -0 -0 -0 -0 -0 -0 -0 -0 -0 -2 -3 -3 -3 -3 -5 -6 -6 -6 -5 -5 -5 -4 -3 -3 -3 -4 -7 -7 nan
-0 -0 -0 -0 -0 -0 -0 -0 -0 -0 -0 -0 -18 -18 -41 -38 -20 -20 -5 -4 -4 -12 -14 -16 -16 -19 nan nan nan nan nan nan nan nan nan nan nan nan nan nan nan nan nan nan nan nan nan nan nan nan nan nan nan nan -4 -1 -1 -0 -0 -0 -0 -0 -0 -0 -0 -1 -1 -1 -1 -1 -2 -3 -6 -6 -8 -9 -7 -7 -5 -4 -4 -4 -5 -10 -10 nan
-0 -0 -0 -0 -0 -0 -0 -0 -0 -0 -0 -0 -0 -0 -7 -39 -17 -17 -5 -7 -7 -11 -10 -12 -12 -21 -20 nan nan nan nan nan nan nan nan nan nan nan nan nan nan nan nan nan nan nan nan nan nan nan nan nan nan nan -37 -8 -8 -3 -2 -3 -3 -3 -1 -0 -0 -0 -0 -0 -0 -0 -0 -1 -2 -2 -4 -7 -8 -8 -7 -6 -6 -5 -9 -10 -10 -7
-0 -0 -0 -0 -0 -0 -0 -0 -0 -0 -0 -0 -0 -0 -4 nan -11 -11 -6 -8 -8 -8 -5 -13 -13 -14 -16 -20 nan nan nan nan nan nan nan nan nan nan nan nan nan nan nan nan nan nan nan nan nan nan nan nan nan nan nan -21 -21 -13 -9 -6 -6 -2 -1 -0 -0 -0 -0 -0 -0 -0 -0 -0 -0 -0 -1 -3 -5 -5 -5 -5 -5 -7 -13 -13 -13 -11
-24 -0 -0 -0 -0 -0 -0 -0 -0 -0 -0 -0 -0 -0 -0 -22 -5 -5 -2 -4 -4 -6 -4 -4 -4 -9 -16 -23 -29 -29 -24 -26 nan nan nan nan nan nan nan nan nan nan nan -27 -27 -22 -29 nan nan nan nan nan nan nan nan nan nan -60 -31 -4 -4 -6 -4 -4 -4 -3 -1 -0 -0 -0 -0 -0 -0 -0 -0 -1 -2 -2 -2 -3 -3 -4 -14 -15 -15 -13
nan nan -69 -1 -1 -1 -10 nan -7 -7 -0 -0 -0 -0 -2 -18 -3 -3 -1 -1 -1 -1 -2 -2 -2 -5 -13 -30 -37 -37 nan nan nan nan nan nan nan nan nan nan nan nan nan -20 -20 -9 -11 nan nan nan nan nan nan nan nan nan nan nan nan -72 -72 -56 -22 -19 -19 -19 -14 -5 -0 -0 -0 -0 -0 -0 -0 -0 -0 -0 -0 -1 -1 -2 -10 -13 -13 -12
nan nan nan nan nan nan nan nan nan nan nan nan nan nan nan nan nan nan nan nan nan nan -10 -6 -6 -8 nan nan nan nan nan nan nan nan nan nan nan nan nan nan nan nan nan nan nan nan -16 -11 -11 nan nan nan nan nan nan nan nan nan -77 nan nan nan -34 -24 -24 -21 nan -5 -0 -0 -0 -0 -0 -0 -0 -1 -2 -2 -2 -3 -3 -4 -8 -7 -7 -6
-26 -22 nan nan nan nan nan nan nan nan nan nan nan nan nan nan nan nan nan nan nan nan nan nan nan nan nan nan nan nan nan nan nan nan nan nan nan nan nan nan nan nan nan nan nan nan nan nan nan nan nan nan nan nan -33 -32 -32 -50 nan nan nan nan nan nan nan nan nan -19 -13 -13 -1 -0 -0 -0 -1 -1 -1 -1 -0 -1 -1 -2 -3 -6 -6 -4
-9 -14 -19 -27 -27 nan nan nan nan nan nan nan nan nan nan nan nan nan nan nan nan nan nan nan nan nan nan nan nan nan nan nan nan nan nan nan nan nan nan nan nan nan -26 nan nan nan nan nan nan nan nan nan nan nan nan nan nan nan nan nan nan nan nan nan nan nan nan -27 -29 -29 -14 -11 -2 -2 -2 -1 -2 -2 -0 -0 -0 -0 -0 -3 -3 -3
-6 -7 -6 -7 -7 -7 -6 -11 -22 -22 -31 nan nan nan nan nan nan nan nan nan nan nan nan nan nan nan nan nan nan nan nan nan -26 -26 -14 -40 nan nan nan nan nan nan nan nan nan -18 -14 -16 -16 -10 -6 -10 nan nan nan nan nan nan nan nan nan nan nan nan nan nan nan -18 -10 -10 -11 -10 -8 -8 -5 -3 -2 -2 -0 -0 -0 -0 -0 -0 -0 -1
-5 -5 -4 -8 -8 -9 -10 -10 -26 -26 nan nan nan nan nan -9 -4 -4 nan nan nan -2 -2 -4 -4 -6 -9 -7 -4 -4 -6 -19 -11 -11 -7 -10 -24 -24 -21 -16 -16 -28 nan nan nan -6 -5 -6 -6 -4 -2 -24 nan nan nan nan nan nan nan nan nan nan nan nan nan nan nan -21 -16 -16 -12 -10 -9 -9 -11 -3 -2 -2 -1 -0 -0 -0 -0 -1 -1 -1
-7 -12 -7 -24 -24 -30 -25 nan -26 -26 -18 -20 -40 -40 -45 nan nan nan nan nan nan -29 -14 -6 -6 -6 -2 -3 -4 -4 -5 -8 -7 -7 -3 -3 -11 -11 -14 -9 -9 -10 nan -2 -2 -3 -2 -4 -4 -7 -17 -39 nan nan nan nan nan nan nan nan nan nan nan nan nan nan nan nan nan nan -22 -18 -17 -17 -15 -3 -6 -6 -2 -0 -0 -1 -0 -1 -1 -2
-14 -10 -7 -22 -22 -23 -20 -12 -5 -5 -20 nan nan nan nan nan nan nan nan nan nan nan nan nan nan nan -17 -7 -13 -13 -17 -22 -16 -16 -14 -11 -6 -6 -5 -5 -5 -6 -6 -6 -6 -3 -2 -2 -2 -3 -11 nan nan nan nan nan nan nan nan nan nan nan nan nan nan nan nan nan -21 -21 -15 -15 -20 -20 -21 -19 nan nan nan -21 -21 -9 -2 -4 -4 -3
-9 -7 -7 -8 -8 -8 -8 -9 -15 -15 nan nan nan nan nan nan nan nan nan nan nan nan nan nan nan nan nan nan nan nan -33 nan nan nan nan nan -34 -34 -13 -7 -7 -9 -15 -15 -15 -6 -3 -3 -3 -4 -6 nan nan nan nan nan nan nan nan nan nan nan nan nan nan nan nan nan -22 -22 -18 -24 -24 -24 nan nan nan nan nan nan nan -16 -11 -8 -8 -2
-3 -6 -6 -3 -3 -15 -21 nan nan nan nan nan nan nan nan nan nan nan nan nan nan nan nan nan nan nan nan nan nan nan nan nan nan nan nan nan nan nan nan nan nan -12 -16 -16 -16 -10 -5 -4 -4 -6 -5 -10 -15 -15 nan nan nan nan -17 nan nan nan nan nan nan nan nan nan nan nan -29 -31 -24 -24 -19 nan nan nan nan nan nan nan -16 -9 -9 -3
-5 -9 -9 nan nan nan nan nan nan nan nan nan nan nan nan nan nan nan nan nan nan nan nan nan nan nan nan nan nan nan nan nan nan nan nan nan nan nan nan nan nan nan nan -12 -12 -9 -5 -4 -4 -5 -7 -9 -8 -8 -10 nan nan -14 -8 -10 -10 nan nan nan nan nan nan nan nan nan -31 -17 -11 -11 -12 -11 -15 -15 -16 -17 -17 -24 -19 -13 -13 -5
-0 -4 nan nan nan nan nan nan nan nan nan -45 -41 -41 -39 -45 nan nan -27 -17 -17 nan nan nan nan nan nan nan nan nan nan nan nan nan nan nan nan nan nan nan nan nan nan nan nan -6 -5 -3 -3 -4 -6 -8 -8 -8 -12 nan nan -13 -10 nan nan nan -16 -30 -30 nan -51 nan nan nan -18 -11 -7 -7 -5 -7 -15 -15 -16 -27 -27 -18 -15 -14 -14 -8
-4 -9 nan -24 -24 -21 -13 -4 -2 -2 -3 -3 -6 -6 -10 -10 -5 -5 -4 -9 -9 -20 -27 -22 -22 -14 -11 -19 nan nan nan nan nan nan nan nan nan nan nan nan nan nan nan nan nan nan -6 -3 -3 -3 -6 -9 -6 -6 -7 -9 -9 -15 nan nan nan -10 -9 nan nan nan nan nan -29 -29 -20 -13 -8 -8 -6 -5 -13 -13 -25 -22 -22 -9 -12 -17 -17 -9
-5 -9 -10 -9 -9 -4 -2 -4 -8 -8 -14 nan -15 -15 -19 -25 -20 -20 -13 -14 -14 -24 -28 -19 -19 -9 -4 -4 -11 -11 nan nan nan nan -44 -34 nan nan nan nan nan nan nan nan nan nan nan -4 -4 -6 -9 -7 -5 -5 -5 -7 -7 -10 -14 -13 -13 -10 -6 nan nan nan nan nan nan nan -29 -17 -9 -9 -6 -5 -12 -12 -24 -35 -35 -32 -21 -17 -17 -10
-6 -2 -2 -2 -2 -5 nan nan nan nan nan nan nan nan -18 -22 -10 -10 -8 -6 -6 -4 -2 -6 -6 -12 nan nan nan nan -11 -18 -28 -28 -32 -18 -8 -8 -29 nan nan nan nan nan nan nan nan -3 -3 -9 -13 -6 -3 -3 -3 -5 -5 -8 -8 -12 -12 -17 nan nan nan nan -22 -29 -30 -30 -31 -23 -12 -12 -6 -6 -12 -12 -21 -29 -29 nan nan -15 -15 -8
-1 -4 nan nan nan nan nan nan nan nan -13 -6 -8 -8 -12 -16 -11 -11 -3 -3 -3 -8 -19 -24 -24 -15 -7 -5 -7 -7 -8 -9 -7 -7 -12 -23 -28 -28 -28 -31 -31 -35 -30 -22 -22 nan -4 -3 -3 -5 -6 -4 -3 -3 -4 -6 -6 -8 -11 -12 -12 -17 -19 -30 -30 nan -28 -20 -26 -26 nan -21 -9 -9 -3 -5 -12 -12 -22 nan nan nan nan -13 -13 -7
nan nan nan nan nan -8 -6 -9 -8 -8 -5 -5 -6 -6 -9 -13 -11 -11 -9 -10 -10 -14 -13 -11 -11 -7 -4 -5 -7 -7 -8 -8 -8 -8 -7 -10 -21 -21 -26 -25 -25 -24 -26 -20 -20 -15 -5 -6 -6 -5 -4 -3 -4 -4 -17 -16 -16 -9 -10 -14 -14 -14 -14 -15 -15 -21 -26 -18 -15 -15 -19 -19 -6 -6 -3 -6 -10 -10 nan nan nan nan nan -12 -12 -6
nan -5 -5 -5 -5 -5 -7 -7 -5 -5 -5 -5 -7 -7 -9 -15 -17 -17 -15 -15 -15 -11 -5 -9 -9 -7 -10 -8 -8 -8 -7 -7 -11 -11 -10 -16 -17 -17 -17 -18 -18 -14 -14 -9 -9 -11 -20 -34 -34 nan nan nan -5 -5 -10 -14 -14 -11 -10 -13 -13 -11 -8 -13 -13 -23 -21 -22 nan nan -28 -14 -5 -5 -4 -4 -5 -5 nan nan nan nan nan -12 -12 -6
-6 -6 -6 -5 -5 -7 -6 -6 -6 -6 -5 -6 -8 -8 -12 -5 -0 -0 -9 -20 -20 -14 -8 -7 -7 -7 -7 -8 -7 -7 -3 -4 -13 -13 -14 nan nan nan -26 -22 -22 -23 -20 -15 -15 -12 -13 nan nan nan nan nan -8 -8 -8 -10 -10 -11 -13 -13 -13 -11 -10 -12 -12 -17 -19 -31 nan nan nan nan -12 -12 -5 -1 -1 -1 -10 nan nan nan nan nan nan -6
-7 -8 -6 -7 -7 -7 -6 -5 -5 -5 -6 -5 -6 -6 -10 -14 -13 -13 -13 -14 -14 -11 -7 -5 -5 -4 -4 -6 -6 -6 -5 -7 -11 -11 -12 nan nan nan nan nan nan -18 -14 -15 -15 -9 nan nan nan nan nan nan nan nan -5 -7 -7 -10 -11 -10 -10 -11 -11 -11 -11 -13 -19 -19 nan nan nan nan -16 -16 -3 -0 -2 -2 nan nan nan nan nan nan nan -4
-2 -5 -6 -7 -7 -5 -6 -6 -5 -5 -5 -4 -4 -4 -7 -10 -11 -11 -10 -8 -8 -7 -5 -5 -5 -3 -3 -3 -3 -3 -2 -6 -7 -7 -8 nan nan nan nan nan nan nan -3 -4 -4 -4 -4 -8 -8 -15 -9 -2 -5 -5 nan -4 -4 -6 -7 -10 -10 nan nan -11 -11 -11 -9 -9 -17 -17 -21 -13 -7 -7 -1 -0 -1 -1 nan nan nan nan nan nan nan -3
Wind_Speed
3 3 2 1 1 2 3 2 2 3 4 4 4 4 4 4 4 4 4 4 4 4 4 4 4 4 5 6 8 9 9 10 11 11 12 12 12 13 13 12 12 11 11 11 11 12 12 12 12 12 12 12 12 13 13 14 14 15 16 16 17 18 18 19 19 20 20 20 20 20 19 17 15 15 16 16 16 17 17 18 18 18 18 18 19 19
3 3 2 1 1 2 3 2 1 1 2 3 3 3 4 5 5 5 5 5 5 4 4 5 5 5 5 6 8 9 10 11 12 12 13 13 13 13 13 12 12 11 11 11 11 12 12 12 13 13 12 12 12 12 12 13 13 13 14 14 15 16 17 18 19 20 20 21 21 21 20 18 15 14 15 16 17 18 18 18 19 19 19 20 20 21
3 2 2 1 1 2 2 2 1 0 1 2 2 3 3 4 4 4 4 4 4 4 4 4 4 5 5 6 7 9 10 11 12 13 13 13 13 13 13 12 12 12 12 12 13 13 13 14 14 14 14 13 13 12 12 11 11 11 12 13 14 15 16 17 18 19 20 20 20 20 19 17 15 14 15 16 17 18 19 19 19 19 20 21 22 23
2 2 2 2 2 2 2 2 2 1 1 2 3 3 3 3 4 4 4 4 4 4 4 4 4 4 4 4 6 8 10 11 12 13 13 13 13 13 13 13 13 13 14 14 15 15 16 16 16 16 15 14 13 12 11 11 10 10 11 11 12 13 14 16 17 18 19 19 19 19 18 17 16 15 15 16 17 18 19 19 19 20 20 21 23 24
2 2 2 2 2 2 2 1 1 2 2 3 3 4 4 4 4 4 4 4 4 4 4 4 4 4 4 4 5 8 10 11 12 13 13 13 13 13 13 14 14 14 15 15 15 16 17 17 17 17 16 15 14 12 11 10 10 10 10 11 12 13 14 15 16 16 17 18 18 18 18 18 17 16 16 16 17 18 19 19 19 20 20 21 23 24
3 2 2 2 2 2 2 2 2 2 3 3 4 4 4 4 4 4 4 4 4 4 4 4 4 4 4 5 6 8 10 11 12 13 13 13 13 13 13 14 14 14 14 14 14 14 15 15 16 16 15 14 13 12 11 11 11 11 11 12 12 13 14 14 15 16 16 17 18 18 18 18 18 17 16 16 16 17 18 19 19 20 20 20 22 23
3 2 2 2 2 2 2 2 2 2 3 3 4 4 4 4 4 4 4 4 3 3 4 4 4 4 4 5 7 8 9 10 10 11 11 11 12 12 12 12 12 12 12 12 12 12 13 13 14 13 13 12 12 12 12 11 12 12 12 13 13 14 14 14 15 15 16 17 18 18 18 18 18 18 17 16 16 16 17 18 19 20 20 20 21 22
4 3 2 3 3 3 3 3 2 2 2 3 4 4 4 4 4 4 4 3 3 3 3 4 4 4 4 4 5 6 6 6 6 7 8 8 9 9 10 11 11 12 12 12 12 12 12 12 12 12 11 11 12 12 12 13 13 13 13 14 14 15 15 15 15 16 16 17 17 18 18 19 19 18 18 17 17 16 16 18 19 20 21 21 22 22
4 4 3 3 3 3 4 4 3 2 2 3 4 4 5 4 4 3 3 3 3 2 2 3 3 4 3 3 3 3 4 5 5 5 6 6 6 7 8 9 10 11 12 12 12 12 12 12 12 12 11 11 12 13 13 13 13 14 14 14 15 15 16 16 16 16 16 17 18 18 19 19 19 19 19 18 18 17 17 17 18 20 21 22 23 24
4 4 4 3 3 3 4 4 3 2 2 2 3 3 3 4 4 4 4 4 3 2 2 2 3 3 3 2 2 3 4 6 7 8 9 8 8 8 8 8 8 9 11 11 12 12 12 12 12 12 12 12 13 13 13 14 14 14 14 14 15 15 16 16 17 17 17 17 18 19 19 20 20 19 19 19 18 18 17 17 18 19 21 22 24 24
4 4 4 3 3 2 3 3 3 2 1 2 2 2 2 2 3 3 4 4 3 2 2 2 2 2 3 3 3 3 4 5 6 8 9 9 10 10 9 8 8 8 9 10 10 11 11 12 12 12 12 12 12 13 13 13 13 13 14 14 15 16 16 17 17 17 17 17 18 19 20 20 20 20 20 19 19 19 18 18 18 18 19 21 23 24
3 3 3 3 3 3 2 2 2 2 2 2 3 3 3 2 1 2 4 4 4 3 3 3 2 2 3 3 3 4 4 4 5 5 5 6 6 6 6 6 6 7 7 8 8 9 10 11 11 11 11 11 12 12 12 12 12 13 14 14 15 16 17 17 17 18 18 18 18 19 20 20 20 20 20 20 20 19 19 19 19 19 19 20 22 23
3 3 3 3 3 3 3 3 3 2 2 2 3 3 3 2 2 2 3 4 4 4 4 4 3 3 3 3 3 3 3 4 4 4 3 3 3 3 4 4 4 5 5 5 5 6 8 9 10 10 10 11 11 12 12 12 12 13 14 15 15 16 17 17 18 18 18 18 19 19 20 20 20 20 20 20 20 20 20 20 20 19 19 20 21 22
3 3 3 3 3 3 3 3 3 3 3 3 3 3 3 3 3 3 3 4 4 4 4 4 4 3 3 3 2 2 2 3 3 3 3 2 2 2 3 4 4 4 4 4 4 5 7 7 7 8 9 10 10 11 11 12 13 13 14 15 15 16 17 17 18 18 19 19 19 19 20 20 20 21 20 20 20 20 20 20 20 20 20 21 21 22
3 3 4 4 4 3 3 3 3 4 3 3 3 3 3 3 3 3 4 5 4 4 3 4 4 4 3 3 2 1 1 2 2 2 3 3 2 2 3 4 4 4 4 5 5 5 6 6 6 6 7 8 9 10 11 12 13 15 15 15 16 16 17 17 18 19 19 20 20 20 20 20 21 21 21 20 20 20 20 20 21 21 21 21 22 22
3 3 4 5 4 4 3 3 3 4 4 3 3 3 4 4 4 3 4 5 4 4 4 4 4 4 3 2 1 1 1 1 2 2 3 3 3 2 3 4 4 5 4 5 5 5 5 5 5 6 6 9 11 13 15 15 15 17 17 17 18 18 18 19 19 20 20 21 21 21 21 21 21 21 21 20 20 19 19 20 20 21 21 22 22 23
3 3 4 5 5 5 4 3 3 4 3 3 3 3 3 4 3 3 3 3 3 3 3 3 4 4 4 3 2 1 2 2 3 3 4 4 3 2 3 3 4 5 5 6 6 6 6 6 6 6 7 11 14 16 18 18 18 19 20 20 20 20 20 20 20 21 21 22 22 22 22 22 22 21 21 20 20 19 19 19 20 20 21 22 22 23
3 3 4 4 4 4 3 3 3 3 3 3 3 3 3 3 3 3 3 3 3 3 3 3 3 4 4 4 3 2 2 3 3 4 5 6 5 3 2 3 4 5 6 6 6 6 6 6 7 8 10 16 19 20 21 22 22 22 22 22 22 21 21 21 21 22 22 23 23 23 23 22 22 21 21 21 20 19 19 19 19 20 20 21 22 23
3 3 3 4 4 3 3 3 3 3 3 3 3 3 3 3 3 3 4 3 3 4 4 4 4 4 4 5 4 2 2 2 3 4 5 6 5 3 2 3 5 5 6 7 6 6 6 7 9 12 16 20 22 23 24 24 24 24 23 23 23 22 22 22 22 22 22 23 23 24 23 23 22 21 21 20 20 20 19 19 19 19 20 20 21 22
5 4 3 4 4 4 4 3 3 3 3 3 3 3 4 3 3 3 4 3 3 4 4 5 5 5 4 5 5 3 1 1 2 3 4 5 6 5 3 4 5 6 6 6 6 5 6 7 9 12 16 19 21 23 25 25 25 25 25 24 23 23 22 22 22 22 23 23 23 23 23 23 22 21 20 20 20 20 20 19 19 19 19 19 20 21
6 6 5 4 5 5 5 5 4 4 5 5 5 4 4 4 4 4 4 4 4 4 4 5 6 5 4 4 4 2 1 1 2 4 4 5 6 6 3 4 5 6 7 7 6 6 6 7 7 8 11 16 20 22 24 25 26 26 26 25 25 24 23 23 22 22 23 23 23 23 23 23 22 21 21 20 20 20 20 20 20 20 19 19 20 20
7 7 6 5 5 6 7 7 8 8 8 7 6 5 5 4 5 6 6 5 6 6 6 6 6 5 4 4 4 3 2 3 4 4 5 7 8 7 3 3 4 5 7 6 6 5 6 6 7 8 11 16 20 22 24 25 26 27 27 27 26 25 24 23 23 22 22 23 23 23 23 23 23 22 21 20 20 20 20 20 20 20 20 20 20 20
7 7 7 6 6 7 7 8 8 8 8 7 6 6 4 4 5 6 6 6 6 7 7 7 7 6 5 6 6 6 5 4 4 4 5 8 8 6 3 3 4 5 6 5 5 6 6 6 7 8 11 16 19 21 23 24 25 26 27 27 26 26 25 24 23 23 23 23 23 23 23 23 23 22 21 21 20 20 20 20 20 20 20 20 20 20
8 8 8 8 7 7 6 7 7 7 7 7 6 6 5 6 6 7 6 7 7 7 6 7 8 8 7 7 7 7 6 5 4 4 5 7 7 6 3 3 4 6 6 5 5 6 7 6 6 7 8 14 17 19 21 23 24 25 26 26 26 26 25 25 24 24 23 23 23 23 23 23 23 22 22 21 20 20 20 20 20 20 20 19 19 20
8 8 8 8 9 9 9 9 9 8 8 7 6 6 6 7 8 8 8 8 8 7 7 8 8 8 7 7 6 6 5 5 5 4 4 5 6 6 4 4 5 6 6 5 5 5 6 6 6 7 7 11 14 17 19 21 23 24 25 26 26 26 26 26 25 25 24 24 24 23 23 23 23 23 22 21 21 20 20 20 20 19 19 18 18 18
12 12 12 13 15 16 17 16 16 15 14 11 8 7 6 7 7 7 7 7 7 7 8 8 8 8 6 5 6 6 4 4 5 5 5 5 6 6 5 4 4 6 6 5 4 5 6 7 6 6 7 8 11 15 18 20 22 23 25 26 27 27 27 26 26 26 25 24 24 23 23 23 23 23 23 22 22 21 21 20 20 19 18 17 16 15
21 21 22 22 22 22 22 22 21 21 21 18 15 12 10 8 7 8 9 7 6 6 8 8 8 7 6 6 6 6 5 5 5 5 5 5 5 6 4 3 4 5 6 5 4 5 7 8 7 6 6 7 8 11 16 18 21 23 25 26 27 27 27 26 25 24 23 23 23 22 22 22 23 23 23 23 22 21 21 20 20 19 18 16 14 12
23 24 24 24 23 23 23 23 22 22 22 22 22 20 16 10 9 10 10 7 6 7 9 9 8 7 7 7 7 6 5 5 5 4 4 4 5 5 4 3 3 4 5 5 5 6 8 8 7 6 6 6 7 8 12 16 19 21 23 24 25 25 24 22 21 21 20 20 20 21 21 21 22 22 23 22 22 21 20 20 19 19 17 14 11 9
21 22 22 22 22 22 21 20 20 20 21 22 23 21 16 10 9 10 9 6 6 7 9 9 8 7 7 7 6 5 5 4 4 3 3 3 4 5 3 3 4 4 4 4 5 5 6 6 5 5 5 6 6 6 8 12 14 16 18 20 20 20 19 18 17 17 18 19 19 20 20 21 21 22 22 22 21 20 19 19 18 16 13 11 9 8
14 15 16 16 16 16 15 14 14 16 19 22 23 21 16 10 8 8 8 6 6 7 9 8 7 6 5 5 4 4 3 3 3 3 3 3 4 4 3 3 4 4 3 3 4 5 5 4 4 4 4 5 5 5 5 7 8 9 10 12 13 13 15 15 16 17 18 19 20 20 21 21 21 21 21 20 19 18 18 18 16 13 9 8 7 7
8 9 9 9 9 9 9 9 10 12 15 18 18 17 13 9 8 7 7 7 7 8 8 8 7 6 5 4 4 4 3 3 3 2 2 3 4 3 2 3 3 3 2 2 3 4 4 3 3 3 3 4 4 4 5 6 6 6 5 6 7 9 12 13 15 16 17 18 19 20 21 21 21 20 20 19 18 17 16 16 14 11 8 7 7 7
6 6 6 6 6 6 7 7 8 9 10 11 11 11 10 9 8 8 7 7 7 7 8 9 8 8 7 6 6 6 5 4 3 3 2 3 4 4 3 3 4 4 3 3 4 4 5 4 3 3 4 4 4 4 5 6 6 5 5 5 5 7 10 12 13 13 14 16 18 19 20 20 20 19 19 18 17 16 15 15 14 11 8 7 7 8
6 6 6 6 6 6 6 7 7 7 8 7 7 7 8 8 9 9 8 7 7 7 8 8 8 8 8 8 8 8 6 5 5 5 5 4 4 4 3 4 4 5 4 4 4 5 5 5 5 4 4 5 5 5 5 5 5 4 4 4 5 6 8 9 9 10 10 12 14 16 17 17 18 17 17 17 16 16 16 16 15 14 11 8 8 8
6 7 7 7 7 7 7 7 6 6 6 6 6 6 7 7 8 9 8 8 7 7 7 7 7 8 8 8 8 8 7 6 7 7 7 5 4 4 3 4 5 5 5 4 4 5 5 6 6 5 5 5 5 4 4 4 4 4 4 4 4 5 6 6 6 7 8 9 9 10 11 12 13 14 14 14 15 15 16 16 17 17 15 11 9 8
7 7 7 7 7 6 6 6 5 5 6 6 6 6 7 7 7 7 7 7 6 6 5 6 6 7 8 8 8 8 8 6 6 7 8 5 4 4 3 4 5 5 5 5 5 5 5 6 7 8 6 5 4 4 3 3 3 3 3 4 5 5 5 5 5 6 7 7 7 7 7 8 8 9 10 11 13 14 16 17 18 18 18 16 14 11
7 8 7 7 7 6 6 6 6 5 6 5 5 5 5 5 5 4 4 4 5 5 6 6 6 7 7 7 8 8 8 6 6 7 7 5 4 4 4 4 4 4 5 5 5 5 5 6 7 7 7 6 5 4 3 3 3 4 4 5 5 6 6 5 5 6 6 6 7 7 7 7 7 8 8 11 13 15 17 18 18 19 19 19 18 16
8 8 7 6 6 6 6 6 5 5 5 4 3 3 3 4 4 4 4 4 5 5 6 7 7 7 8 8 8 8 8 7 7 7 8 6 6 5 5 4 4 4 5 6 6 5 4 5 5 6 5 5 5 4 4 3 4 4 5 5 5 6 6 6 5 5 5 7 7 8 8 8 8 8 9 11 13 14 16 17 17 18 19 19 20 20
7 7 7 6 5 5 6 5 5 4 4 4 4 4 5 5 6 6 6 6 6 6 6 6 6 7 10 11 10 10 9 9 9 9 10 8 7 7 7 7 7 6 6 7 7 7 6 7 7 7 6 6 6 7 6 5 4 5 5 5 5 6 6 5 5 5 5 7 8 8 9 8 8 8 8 9 9 9 9 10 11 13 15 16 18 20
7 7 7 6 6 6 6 6 6 6 5 5 6 6 6 7 7 7 7 7 7 7 7 7 7 7 9 10 11 12 11 11 10 10 10 9 8 8 9 9 9 9 9 9 8 8 8 8 9 9 8 7 7 7 6 6 5 6 6 6 6 6 6 6 6 6 5 6 7 8 8 7 7 7 7 7 6 6 7 7 8 9 10 9 11 14
7 7 7 7 7 7 7 7 7 7 6 7 7 7 7 7 7 7 7 7 7 7 7 7 8 8 8 9 11 11 12 10 10 9 9 8 7 8 9 10 10 10 10 9 9 8 9 9 10 10 10 8 8 7 6 6 6 6 7 6 6 6 6 6 5 5 5 5 6 6 6 6 7 8 8 7 7 7 6 6 6 7 7 7 7 7
8 8 8 7 7 7 7 7 7 6 6 6 6 6 6 6 6 6 6 6 6 6 6 7 7 8 8 9 10 11 12 11 11 11 9 10 10 10 10 10 10 10 10 9 9 9 9 10 10 10 10 9 9 9 9 8 9 10 10 9 8 8 8 8 8 7 5 5 5 6 7 8 9 9 9 9 9 8 7 7 7 7 6 6 6 6
9 9 8 7 7 7 6 6 6 6 6 6 6 5 5 5 4 4 5 5 5 5 5 5 6 7 8 9 9 10 10 10 11 11 12 13 13 12 11 10 10 9 9 9 10 10 10 10 10 10 10 9 9 9 9 9 10 11 11 10 10 9 9 9 7 6 5 5 5 6 8 9 9 9 10 9 8 8 8 7 8 8 8 7 7 7
8 8 7 7 7 6 6 6 6 6 5 5 5 5 5 4 4 5 6 6 6 6 5 6 6 8 9 8 7 6 6 7 9 10 12 12 13 14 13 13 11 10 9 9 9 10 10 10 10 10 10 9 9 9 10 10 10 10 10 10 9 7 6 5 4 4 5 5 5 6 7 8 9 9 9 8 7 6 6 7 9 9 9 8 8 8
8 7 6 6 6 6 6 6 6 6 7 7 7 7 6 6 6 7 7 7 7 6 6 5 6 6 7 7 7 7 6 6 7 9 11 12 13 13 13 13 13 12 11 10 9 9 9 10 10 10 9 8 9 10 10 9 9 8 8 8 8 7 6 5 5 5 6 6 6 6 7 8 9 9 9 9 8 6 6 6 7 7 8 8 9 9
6 6 6 7 7 7 8 8 7 7 7 8 8 8 8 7 7 7 6 7 7 6 5 5 5 6 8 9 9 9 9 8 7 7 8 10 13 14 13 13 12 12 12 11 10 10 9 9 9 8 7 8 8 9 9 9 8 7 7 8 8 8 8 6 6 6 7 7 8 8 8 8 8 8 9 9 8 8 7 7 7 8 8 8 9 10
6 7 7 7 7 8 9 8 8 7 8 8 8 7 7 6 6 6 6 7 6 6 6 6 6 7 8 9 8 8 8 8 8 8 7 8 8 9 10 10 10 10 10 11 11 11 10 10 9 8 8 8 8 9 9 8 8 8 8 9 9 8 8 8 8 7 8 8 8 9 9 8 7 8 9 9 9 8 8 8 8 8 9 9 9 10
7 8 8 8 8 8 8 8 8 7 8 8 8 7 6 6 6 6 6 7 7 7 7 7 7 8 9 9 8 8 8 9 9 8 8 8 7 7 6 7 8 9 9 10 10 11 11 10 10 9 8 8 8 8 8 8 8 9 9 8 8 8 8 8 9 9 8 8 8 9 8 7 7 8 9 9 9 8 8 8 8 8 8 9 9 10
8 8 8 8 8 8 8 8 8 8 8 8 8 7 7 7 7 8 7 7 7 7 8 7 8 8 9 9 9 9 9 9 9 8 8 8 7 7 7 6 6 6 7 8 9 10 10 10 10 9 8 8 8 8 9 9 9 9 8 8 8 8 9 10 9 8 8 8 8 8 7 7 7 8 9 9 9 8 7 7 7 7 8 8 9 10
8 8 8 8 8 8 8 8 8 8 8 8 8 8 7 8 9 10 8 7 6 7 7 8 8 9 9 9 9 9 9 9 9 8 8 7 7 6 6 6 5 5 5 6 7 7 8 9 10 11 10 10 10 10 10 10 10 9 8 8 8 8 9 10 9 9 8 8 8 8 7 7 8 9 9 9 9 8 7 7 7 7 7 8 8 9
8 8 8 8 8 8 8 8 8 8 9 9 9 9 8 8 7 7 7 7 7 7 7 8 8 9 9 9 9 9 9 9 8 8 8 7 6 6 5 5 5 5 5 5 5 5 5 6 8 11 13 14 13 12 11 11 10 9 9 8 8 8 9 9 9 9 8 8 8 8 7 8 8 8 9 9 8 8 7 7 7 7 6 7 8 9
9 8 8 8 8 8 8 8 8 9 9 9 9 9 9 8 7 7 7 7 7 7 8 8 8 9 9 10 10 10 10 9 9 9 9 8 7 6 6 6 6 6 6 6 5 5 5 5 6 8 11 16 17 16 12 11 10 9 9 9 8 8 8 9 9 9 9 8 7 7 7 8 8 8 7 7 7 7 7 7 7 7 6 5 7 9
Wind_Direction
289 291 294 314 311 298 293 312 326 323 315 323 330 335 341 342 338 332 332 334 331 325 317 312 309 305 301 296 294 292 290 289 287 286 286 285 284 284 283 283 283 283 282 279 275 271 267 264 263 263 265 268 273 277 282 286 290 294 297 299 301 301 301 299 297 295 294 294 295 294 291 281 265 247 233 224 218 214 212 212 213 214 215 216 216 217
272 272 269 262 264 272 278 298 320 326 310 315 321 329 335 333 328 326 328 327 324 319 314 311 309 305 300 297 294 292 290 289 288 287 286 284 283 282 281 281 281 282 282 280 276 272 268 263 261 260 260 263 266 271 276 281 286 291 295 297 299 301 301 300 298 297 295 293 293 293 294 289 278 262 245 234 225 219 215 214 214 214 215 216 217 219
272 270 269 272 272 274 280 298 311 322 300 300 305 312 320 318 316 316 318 318 315 312 307 305 303 301 296 294 292 291 291 291 290 289 287 286 284 283 282 282 283 284 285 284 282 278 273 267 262 259 257 259 261 265 270 275 281 286 290 293 296 297 298 298 298 296 295 293 292 291 291 288 283 273 258 245 235 227 221 218 217 216 217 218 219 221
280 281 282 292 289 280 276 294 305 311 309 303 304 307 311 310 308 307 306 308 308 306 304 301 299 298 295 293 292 291 292 292 291 290 289 288 287 285 285 285 286 287 288 287 285 282 278 272 267 262 258 257 258 261 265 270 274 279 283 286 289 291 292 293 293 293 293 292 290 289 287 284 281 275 267 256 247 238 231 225 222 220 219 220 222 223
282 285 292 297 294 288 286 299 313 318 318 314 313 313 312 308 305 304 303 303 302 301 300 300 297 294 292 290 290 290 291 291 291 291 290 290 289 288 288 288 288 288 288 288 287 286 283 278 273 267 261 258 257 259 262 266 269 273 276 279 281 283 285 286 288 289 289 289 288 287 285 282 278 274 270 263 255 248 241 235 230 226 223 223 224 225
282 285 296 295 291 294 304 314 324 326 321 313 311 309 307 304 302 300 300 300 298 295 294 293 289 285 283 282 285 287 290 291 292 292 292 292 291 291 291 291 291 291 292 293 293 292 290 286 280 273 266 261 258 258 261 264 267 270 273 275 277 278 280 282 283 285 286 286 286 286 284 281 278 274 269 265 260 254 249 244 239 235 230 228 227 227
283 285 297 295 295 297 303 308 315 319 314 307 304 302 299 297 294 291 289 289 289 290 291 289 286 283 281 281 284 287 290 292 293 294 295 295 295 296 297 298 299 300 300 302 302 301 298 295 289 280 271 263 259 258 260 262 266 269 272 274 276 277 279 281 282 283 284 284 284 284 283 281 278 274 269 265 261 257 253 249 246 242 238 235 232 231
287 289 293 293 297 299 295 294 297 301 299 296 295 296 294 291 287 284 282 283 285 288 291 291 290 288 286 286 288 291 294 296 298 299 299 299 300 302 303 306 307 307 306 306 305 303 302 299 294 286 276 267 262 260 260 261 264 266 270 273 276 279 281 282 283 283 283 283 283 283 283 281 279 275 271 266 262 257 254 251 248 246 243 241 238 236
289 291 289 285 289 292 292 288 286 283 281 280 280 283 287 288 287 285 285 286 286 286 289 293 293 292 291 292 295 299 302 302 302 302 300 301 301 303 304 305 306 306 305 304 304 303 302 301 297 291 283 275 269 265 264 264 264 266 269 272 276 279 282 284 284 285 284 284 284 284 283 282 280 277 273 268 263 258 254 251 249 248 246 244 242 240
289 289 290 285 281 280 285 286 284 281 278 272 266 264 267 279 287 290 290 287 288 294 297 292 294 296 298 300 303 305 306 303 301 300 300 301 300 300 301 302 303 303 304 305 306 306 306 304 302 298 292 285 279 275 271 269 269 269 270 273 276 280 282 284 285 285 285 285 286 285 285 283 281 278 275 271 266 261 256 252 249 248 247 246 245 243
294 293 292 291 287 280 272 277 281 289 315 298 283 270 259 271 285 292 294 292 296 306 311 298 294 297 302 302 302 301 302 301 300 300 301 301 302 302 303 305 305 306 309 310 312 313 312 310 307 304 300 295 290 285 281 278 275 274 274 275 277 280 282 283 284 285 285 286 287 287 286 285 283 280 277 273 269 264 259 254 250 248 247 247 246 244
302 302 298 296 295 293 285 288 299 324 348 332 317 308 303 301 301 299 296 296 298 303 302 295 287 284 286 291 293 294 294 292 293 295 298 300 304 307 310 312 314 316 317 318 317 317 315 313 312 310 308 305 301 296 292 287 283 280 278 278 279 280 281 282 283 284 285 286 287 288 287 286 284 281 279 275 271 267 262 257 253 249 247 247 246 245
301 302 299 297 296 297 300 309 318 327 332 321 307 299 296 303 314 313 298 293 294 295 296 292 287 279 272 272 277 283 286 284 285 287 291 297 307 316 321 321 322 323 323 321 317 315 314 313 313 312 312 311 307 304 301 296 291 287 284 282 281 281 282 282 283 284 285 286 286 287 287 286 284 282 280 276 273 269 265 260 256 252 249 247 246 245
301 303 300 296 295 297 302 308 307 304 301 298 291 287 288 299 307 307 298 291 290 291 293 289 287 285 279 268 263 266 277 284 288 291 296 299 311 324 330 323 320 319 321 316 311 308 308 310 310 310 310 309 307 306 303 299 295 292 289 287 285 284 284 284 284 285 285 286 286 286 286 285 284 282 280 277 274 270 266 263 259 255 252 249 246 245
297 300 296 292 291 292 294 296 293 289 287 289 290 294 298 300 301 298 294 291 292 296 297 291 289 285 276 267 265 275 306 306 307 307 308 303 309 323 333 322 316 314 316 310 306 303 305 304 302 299 300 298 296 296 295 295 294 293 293 292 291 290 289 288 287 287 287 286 286 285 285 284 283 281 279 277 274 271 268 264 261 258 254 251 248 245
282 285 284 285 284 284 284 285 285 285 287 289 290 293 297 295 293 291 287 289 293 299 299 297 295 290 277 269 273 329 6 340 324 316 314 305 305 319 335 322 314 311 311 307 303 302 305 301 296 292 290 288 288 288 288 289 291 292 293 294 294 294 293 292 291 289 289 287 286 285 284 282 281 280 278 277 274 272 269 266 263 260 256 253 249 246
261 263 267 272 275 276 275 273 273 276 282 284 285 283 282 282 283 284 281 287 293 297 293 296 296 294 291 291 294 319 3 343 329 319 313 302 301 312 332 318 310 306 307 302 300 301 303 300 296 293 289 287 287 287 288 288 289 290 291 292 292 292 292 292 291 289 288 287 286 285 283 281 280 278 277 276 274 272 270 267 265 262 258 255 251 247
251 249 253 259 262 265 266 263 263 265 269 273 275 275 271 271 274 278 280 285 290 292 291 290 285 284 291 290 292 311 357 338 323 311 305 295 294 303 325 314 305 300 300 296 294 295 296 294 293 292 290 289 289 289 289 288 288 288 288 289 289 289 289 289 288 288 287 286 285 284 282 280 278 277 275 274 273 272 270 268 266 264 261 257 254 250
277 268 265 268 271 271 264 258 258 261 263 265 269 273 275 274 276 278 277 279 280 281 283 283 279 276 279 280 283 297 344 320 306 297 291 287 289 296 314 304 297 293 290 288 288 289 289 287 287 287 288 289 289 289 289 288 288 287 287 286 286 286 286 286 286 286 286 285 284 283 282 280 278 276 274 272 272 271 270 269 267 265 263 260 257 253
299 297 296 299 299 295 286 279 274 272 272 277 280 281 281 281 278 275 273 275 273 272 273 275 273 272 271 274 277 280 299 309 297 288 284 286 287 289 296 289 286 283 281 280 281 282 282 281 282 284 285 286 287 287 288 288 287 287 286 285 285 284 284 284 284 285 285 285 284 283 282 281 279 277 274 272 271 271 271 270 269 268 266 264 261 258
291 286 284 293 296 294 288 288 288 289 292 296 294 289 284 284 280 275 274 277 276 274 268 265 266 268 268 270 273 281 21 340 309 297 294 288 284 282 283 278 276 276 276 275 275 275 275 275 276 277 279 281 283 284 285 286 286 286 285 285 284 283 283 282 283 283 284 284 284 284 283 282 280 278 275 273 272 271 271 271 270 270 268 267 265 262
282 280 280 281 281 281 282 284 286 288 291 292 289 284 282 283 281 281 282 283 282 279 276 274 276 280 283 282 284 292 315 305 297 293 293 283 278 275 274 268 268 270 271 273 274 273 271 271 271 272 274 277 279 281 282 283 284 284 284 284 283 283 282 282 282 282 283 283 284 284 284 283 281 278 275 273 271 271 271 271 272 271 271 269 267 265
270 272 275 272 270 271 274 277 279 279 278 273 269 266 267 269 272 274 274 273 272 272 273 274 276 277 276 278 279 280 278 272 271 272 274 272 273 273 267 262 264 266 266 270 274 275 271 270 271 273 275 276 277 278 279 280 281 281 282 283 283 283 282 282 282 282 282 283 283 283 283 282 280 278 275 273 271 270 270 271 272 272 272 270 269 266
258 261 262 260 259 258 260 261 260 259 256 255 255 256 255 256 259 261 262 261 261 261 263 264 265 265 263 265 268 268 260 249 245 248 254 263 267 269 261 257 262 266 265 266 269 273 273 271 271 273 276 275 275 276 277 278 279 280 281 281 282 282 283 283 283 283 283 282 282 281 281 281 279 278 275 273 270 269 269 270 271 271 272 270 269 266
253 254 253 252 250 249 249 249 249 248 247 246 247 248 249 251 254 257 259 258 257 257 257 257 258 259 260 261 263 262 254 233 227 231 243 256 261 261 253 249 257 263 265 263 262 266 271 271 271 272 274 274 275 275 276 277 279 280 281 281 282 283 283 283 283 283 282 281 280 280 279 279 278 277 276 274 271 269 268 268 268 269 269 269 268 266
265 264 262 261 259 258 257 256 255 254 254 254 252 251 254 257 259 260 258 255 254 253 252 252 252 253 256 259 262 262 257 235 224 225 233 249 257 257 250 243 250 259 265 263 261 262 268 268 268 267 268 270 272 274 275 276 277 278 280 280 280 281 282 282 282 282 282 281 279 278 278 277 277 277 276 274 272 270 267 266 265 266 266 267 267 267
274 274 273 272 271 269 268 267 267 266 266 268 270 273 276 277 275 271 265 258 253 250 250 250 252 254 256 256 258 259 256 244 232 226 225 242 254 257 251 244 249 258 266 265 261 259 262 264 264 262 261 262 264 268 270 272 273 274 275 276 277 278 279 280 281 282 283 283 282 280 279 277 277 276 276 275 273 270 266 263 262 262 264 265 266 267
277 276 275 275 275 276 276 276 276 276 277 278 279 280 282 283 280 275 270 265 256 251 250 250 253 256 257 256 256 255 252 246 236 224 213 233 248 253 254 249 251 257 267 271 265 258 257 259 259 257 254 253 255 259 263 266 268 269 270 272 273 275 278 281 284 286 288 289 288 286 284 282 280 279 278 276 273 270 265 262 260 260 262 263 265 267
277 276 275 274 274 275 277 278 279 279 278 279 279 280 280 278 275 273 273 272 264 258 257 256 255 255 257 258 258 254 244 237 224 208 198 229 246 254 258 257 256 259 268 275 273 264 252 251 250 248 247 247 248 253 259 262 265 266 268 270 272 276 280 284 289 292 294 295 294 293 291 288 286 284 281 278 275 270 266 262 261 261 262 263 264 266
272 271 271 270 270 270 271 271 271 271 272 273 275 276 276 272 269 270 276 276 271 268 269 269 265 262 263 267 267 257 238 221 207 199 201 235 252 261 268 263 260 259 261 273 275 270 258 248 242 242 248 249 251 256 263 264 265 266 267 270 274 278 283 288 292 295 297 297 296 295 293 291 289 287 284 281 277 272 269 266 266 266 267 266 266 266
261 261 261 261 260 259 259 258 259 262 264 267 270 271 271 268 265 266 271 270 269 269 273 275 275 275 276 280 279 272 259 236 220 214 215 249 262 268 267 262 260 254 237 247 267 276 276 263 248 247 260 262 263 263 266 267 267 267 271 276 279 283 288 292 295 297 298 296 295 293 291 290 288 287 284 282 279 276 274 273 273 273 273 271 268 266
257 256 256 254 252 251 252 254 255 257 258 261 262 264 264 263 262 261 262 261 262 264 267 270 272 273 273 273 273 273 274 267 258 251 250 262 268 268 252 253 257 257 238 231 247 266 279 276 267 260 267 268 266 261 258 262 265 271 279 282 285 288 291 293 295 296 295 294 292 290 288 286 285 283 282 282 281 281 280 279 278 277 275 272 269 267
269 266 264 263 261 259 258 258 258 257 257 257 258 259 260 261 261 260 259 257 256 256 258 263 266 268 268 266 266 267 270 271 267 261 256 259 262 261 245 244 250 255 251 240 241 250 265 271 271 268 264 263 260 254 248 249 252 260 270 274 277 282 287 288 289 289 288 288 288 286 285 283 282 280 280 281 282 283 284 282 280 278 275 271 268 267
283 280 277 274 271 269 266 265 265 264 264 263 262 261 260 260 261 261 260 259 258 257 258 261 264 267 268 267 266 265 267 268 268 265 259 256 256 256 246 241 245 251 255 249 244 246 256 262 264 264 261 256 249 241 234 234 239 246 254 262 269 275 279 282 282 282 282 282 282 283 283 282 280 279 278 280 281 282 283 282 279 277 273 269 266 264
291 287 285 283 281 280 278 277 275 272 269 264 262 261 263 266 268 268 267 266 266 265 265 264 264 264 266 267 267 267 268 270 273 273 267 262 260 259 251 241 240 244 250 249 248 249 256 257 256 254 257 255 248 238 231 238 247 255 259 262 265 268 271 274 277 279 281 281 282 282 283 282 280 278 277 278 279 280 280 280 278 275 272 268 264 260
295 293 293 293 292 290 289 285 280 272 266 262 261 263 268 272 274 274 271 268 266 262 259 256 254 255 255 258 262 266 269 273 276 275 272 267 263 261 257 245 239 239 248 253 254 254 259 260 256 252 253 257 259 257 254 259 265 269 268 264 263 264 264 265 268 273 279 281 282 282 283 282 280 278 277 278 279 279 280 279 278 275 272 267 262 257
296 295 294 292 290 287 284 280 275 269 266 266 266 268 272 274 275 274 273 268 263 259 258 257 255 254 253 254 257 261 267 270 270 267 263 261 261 263 266 263 257 255 260 268 271 271 268 269 266 262 259 262 267 272 275 277 275 272 267 263 262 262 262 261 262 265 271 275 277 278 279 278 277 276 276 278 279 279 280 279 277 275 272 267 262 256
293 291 291 288 286 283 283 282 282 280 280 282 283 281 279 279 280 280 281 276 271 267 266 265 264 262 260 261 261 262 265 266 265 262 258 257 257 260 267 271 271 269 269 274 277 277 274 273 273 274 273 272 273 276 280 280 277 271 268 265 263 261 261 260 259 259 261 266 270 272 274 274 274 274 275 277 277 278 277 276 274 273 271 267 262 256
294 293 293 293 292 291 292 292 291 289 287 284 283 282 282 281 281 280 279 277 275 272 270 270 271 271 268 267 267 267 268 266 262 259 255 253 253 255 261 266 267 267 267 267 267 266 265 266 268 271 275 276 276 276 275 273 271 270 272 273 270 267 263 259 256 254 254 259 264 268 271 272 272 272 272 272 272 271 270 271 270 270 270 270 265 259
297 295 294 294 293 291 290 288 286 285 283 282 282 282 281 280 279 277 274 273 272 271 270 270 271 272 271 271 271 270 269 267 263 259 255 251 249 251 255 259 263 264 264 262 259 257 257 259 263 265 267 270 271 272 270 266 264 265 268 272 271 269 267 263 259 256 252 254 259 265 270 271 270 269 267 265 263 262 261 263 264 265 266 268 270 267
294 292 290 289 287 284 280 280 280 281 281 282 282 281 278 276 275 274 273 272 271 270 271 271 272 271 270 267 265 264 263 261 260 258 256 252 250 249 251 254 257 259 260 258 256 254 252 256 259 261 262 264 265 266 265 262 261 261 263 263 266 269 271 268 265 261 256 253 254 258 263 267 267 266 263 259 256 253 251 253 256 259 263 262 263 265
290 288 288 287 286 285 284 284 284 283 281 279 277 276 275 275 276 277 277 276 274 273 272 272 273 273 272 268 263 259 257 255 254 253 253 250 248 246 247 248 250 252 253 254 253 251 249 251 254 257 258 260 262 263 262 259 257 255 254 257 262 266 270 266 261 255 253 252 252 254 258 263 264 263 261 257 254 249 246 247 250 254 259 260 260 259
287 287 288 290 292 294 297 297 297 296 295 293 291 288 288 287 286 285 284 283 282 281 278 274 271 271 270 269 267 264 260 255 251 250 249 246 245 244 244 244 244 245 246 248 249 249 248 248 249 251 253 255 257 258 260 259 255 251 249 250 254 259 264 262 259 256 255 255 255 257 259 263 265 266 264 261 257 254 251 252 255 256 258 260 260 259
291 294 298 301 305 308 309 308 307 306 305 301 298 295 293 290 287 285 284 282 280 278 273 273 275 278 280 283 287 289 287 277 264 255 250 246 243 242 242 242 241 241 240 242 245 248 249 248 247 248 249 250 251 254 256 256 254 251 248 248 250 253 258 267 271 271 268 264 261 260 261 264 267 268 269 267 264 262 259 258 259 259 259 259 258 257
302 306 309 311 311 310 308 306 304 302 299 295 293 291 290 289 287 285 284 284 284 285 287 294 297 296 291 291 291 291 289 286 279 271 263 254 248 244 241 240 239 239 237 238 239 242 245 247 248 248 247 246 247 250 254 257 259 260 260 259 259 259 260 265 267 268 267 265 262 260 258 258 261 264 266 265 264 262 260 259 259 259 259 257 256 255
310 310 309 308 306 304 301 300 299 296 293 290 289 289 289 289 288 287 286 288 289 292 294 294 291 286 282 282 283 284 284 284 284 283 282 273 262 251 244 240 239 239 239 239 239 239 240 244 246 249 248 247 246 247 250 256 261 265 267 265 264 264 263 262 260 258 257 257 257 256 254 253 255 258 260 262 262 260 257 255 255 255 256 256 254 253
305 304 302 302 300 299 298 298 297 294 292 291 291 292 293 294 293 291 288 287 287 287 286 284 280 276 276 279 280 281 282 282 282 282 282 282 280 275 264 253 246 244 244 245 245 244 244 244 244 245 246 248 249 251 252 254 258 261 263 262 261 260 259 259 258 255 251 250 251 252 253 253 253 254 256 258 259 258 256 254 252 252 252 253 253 253
301 301 300 300 299 298 297 297 296 295 294 294 294 295 294 294 293 291 288 286 285 284 285 282 279 276 274 275 275 275 276 276 277 277 276 277 279 280 277 271 261 252 248 249 250 250 250 248 246 244 243 247 253 257 259 258 257 256 256 256 255 255 256 258 257 255 251 247 246 246 246 248 250 252 255 256 255 255 255 254 253 251 249 251 252 252
300 299 299 297 297 296 295 296 296 295 294 295 295 294 293 292 291 290 288 287 285 283 281 279 278 277 275 274 274 274 273 273 273 273 272 272 272 272 273 272 268 262 256 251 250 251 252 250 246 241 238 241 247 254 259 259 257 255 254 252 252 254 257 258 257 255 251 248 245 243 241 243 246 248 250 251 251 253 256 257 256 254 251 250 250 250
296 295 295 295 294 294 294 295 295 295 295 295 295 295 294 293 291 290 288 287 285 283 281 280 280 280 279 279 279 279 278 277 276 274 272 272 271 270 269 268 268 267 265 259 253 250 249 250 245 239 233 232 234 241 250 254 255 254 251 250 250 251 254 256 256 254 251 248 246 243 241 243 243 243 242 244 247 252 257 259 259 258 254 251 250 250
295 294 293 293 292 292 293 294 295 294 294 295 295 295 295 295 295 293 291 290 288 286 285 283 282 282 282 283 283 282 280 279 278 276 275 274 272 270 267 265 263 262 263 261 258 254 252 254 252 245 236 229 226 226 234 242 247 249 250 249 249 249 250 253 253 252 249 247 245 243 241 242 241 240 236 238 244 251 257 260 261 261 258 255 254 251